Location: Vanderbilt Beach
(26.2700°N, 81.7900°W)
Time: 14:49:08
(UTC-05:00)

ISS - Visible Passes

Search period start: 30 November 2023 00:00
Search period end: 10 December 2023 00:00
Orbit: 416 x 417 km, 51.6° (Epoch: 30 November)

Date Brightness Start Highest point End Pass type
(mag) Time Alt. Az. Time Alt. Az. Time Alt. Az.
04 Dec -1.5 19:20:37 10° NW 19:21:37 18° NW 19:21:37 18° NW visible
05 Dec -3.0 18:32:16 10° NNW 18:35:19 33° NE 18:36:27 25° E visible
06 Dec -1.5 19:20:27 10° WNW 19:23:16 25° SW 19:25:00 17° S visible
07 Dec -3.1 18:31:22 10° NW 18:34:39 56° SW 18:37:55 10° SSE visible
09 Dec -0.4 18:31:44 10° W 18:33:34 14° SW 18:35:25 10° SSW visible
